Regional Weather Roundup
Issued by NWS

Home | Current Version | Previous Version | Text Only | Print | Product List | Glossary On
Versions: 1 2 3 4 5 6 7 8 9 10 11 12 13 14 15 16 17 18 19 20 21 22 23 24 25 26 27 28 29 30 31 32 33 34 35 36 37 38 39 40 41 42 43 44 45 46 47 48 49 50
000
ASUS43 KMKX 220800
RWRWI

WISCONSIN REGIONAL WEATHER ROUNDUP
NATIONAL WEATHER SERVICE MILWAUKEE/SULLIVAN WI
300 AM CDT MON SEP 22 2014

NOTE: "FAIR" INDICATES FEW OR NO CLOUDS BELOW 12,000 FEET WITH NO
SIGNIFICANT WEATHER AND/OR OBSTRUCTIONS TO VISIBILITY.

WIZ001-002-006>008-014>016-023>028-220900-
NORTHWEST WISCONSIN

CITY           SKY/WX    TMP DP  RH WIND       PRES   REMARKS
SUPERIOR ARPT  CLEAR     44  44  99 SW6       30.18F
ASHLAND        CLOUDY    48  45  89 SW3       30.17F
HAYWARD        CLEAR     38  38 100 CALM      30.20S
SIREN          CLEAR     44  43  95 CALM      30.21S
RICE LAKE      PTCLDY    43  42  97 CALM      30.22R
LADYSMITH      CLEAR     39  38  97 CALM      30.21S
EAU CLAIRE     NOT AVBL
MENOMONIE      SUNNY     46  45  95 CALM      30.22R
NEW RICHMOND   CLEAR     45  45 100 CALM      30.22S
OSCEOLA        CLEAR     43  43 100 CALM      30.24S
$$

WIZ003>005-009-010-017-018-220900-
NORTH CENTRAL WISCONSIN

CITY           SKY/WX    TMP DP  RH WIND       PRES   REMARKS
WOODRUFF       CLEAR     37  35  94 CALM      30.16S
RHINELANDER    CLEAR     41  39  93 W7        30.17S
EAGLE RIVER    FOG       32  32 100 CALM      30.15S VSB 1/2
LAND O LAKES     N/A     32  32 100 CALM      30.15F FOG
PHILLIPS       CLEAR     36  35  96 CALM      30.18R
TOMAHAWK       CLEAR     32  31  97 CALM      30.18S
MEDFORD        CLEAR     39  38  97 CALM      30.19S
MERRILL        CLEAR     35  35 100 CALM      30.18S
$$

WIZ029-030-035-036-043>047-220900-
CENTRAL WISCONSIN

CITY           SKY/WX    TMP DP  RH WIND       PRES   REMARKS
WAUSAU         CLEAR     41  39  93 NW5       30.17S
MOSINEE        CLEAR     39  37  93 CALM      30.19S
MARSHFIELD     CLEAR     42  39  89 W6        30.20R
STEVENS POINT  CLEAR     35  33  95 CALM      30.19S
WAUPACA        CLEAR     41  40  95 CALM      30.18S
WAUTOMA        NOT AVBL
WISC RAPIDS    CLEAR     38  37  97 CALM      30.21S
CAMP DOUGLAS   CLEAR     37  37 100 CALM      30.20S FOG
$$

WIZ011>013-019>022-031-037>040-048>050-220900-
NORTHEAST WISCONSIN

CITY           SKY/WX    TMP DP  RH WIND       PRES   REMARKS
ANTIGO         CLEAR     35  35 100 CALM      30.16F
STURGEON BAY   CLEAR     43  37  81 CALM      30.16S
GREEN BAY      CLEAR     39  38  96 W5        30.17S
MANITOWOC      NOT AVBL
APPLETON       CLEAR     39  37  93 W7        30.18S WCI  34
CLINTONVILLE   CLEAR     37  36  93 CALM      30.18S
OSHKOSH        CLEAR     40  39  97 CALM      30.17F
$$

WIZ032>034-041-042-053>061-220900-
SOUTHWEST WISCONSIN

CITY           SKY/WX    TMP DP  RH WIND       PRES   REMARKS
LA CROSSE      CLEAR     47  45  93 SE6       30.22S
SPARTA         PTCLDY    36  36  99 CALM      30.23S
VIROQUA        FAIR      44  44 100 SW3       30.22S
BOSCOBEL       FOG       46  45  96 S3        30.24R VSB 1/4
PRAIRIE DU CHI CLEAR     45  44  95 CALM      30.24S
PLATTEVILLE    FAIR      44  43  96 CALM      30.23S
$$

WIZ056-057-062-063-064-067-068-220900-
SOUTH CENTRAL WISCONSIN

CITY           SKY/WX    TMP DP  RH WIND       PRES   REMARKS
BARABOO/DELLS  CLEAR     40  38  93 CALM      30.20S
LONE ROCK      NOT AVBL
WATERTOWN      CLEAR     39  39 100 CALM      30.18F
MADISON        CLEAR     42  39  89 CALM      30.19F
MIDDLETON      FAIR      41  40  97 CALM      30.20F
MONROE         CLEAR     45  41  87 N6        30.20S
JANESVILLE     CLEAR     43  41  93 NW5       30.20S
$$

WIZ051-052-058>065-066-070>072-220900-
SOUTHEAST WISCONSIN

CITY           SKY/WX    TMP DP  RH WIND       PRES   REMARKS
MILWAUKEE      CLEAR     46  39  76 NW5       30.18F
WAUKESHA       CLEAR     41  36  81 CALM      30.19F
MILWAUKEE/TIMM CLEAR     41  36  81 CALM      30.19F
RACINE         CLEAR     45  41  86 NW7       30.20R
BURLINGTON     CLEAR     38  38  98 CALM      30.19S
KENOSHA        CLEAR     45  41  86 N6        30.19S
FOND DU LAC    CLEAR     42  39  89 CALM      30.18F
SHEBOYGAN      CLEAR     41  38  89 NW3       30.17F
WEST BEND      CLEAR     37  36  93 CALM      30.18S
JUNEAU         CLEAR     39  38  97 CALM      30.19F
$$

LSZ147-162-220900-
LAKE SUPERIOR

STATION/POSITION TIME  TEMP    WIND        PRES    WAVE
                       AIR SEA DIR/SP/G            HT/PER
                 (UTC) (F)     (DEG/KT/KT) (MB)    (FT/S)
W MID LAKE BUOY  0650   49 46  260/  8/ 10 1020.3F   1/ 5
DEVILS ISLAND    0700   52     240/ 11/ 13 1021.4F
PORT WING        0700   49     160/  4/  5 1021.7
SAXON HARBOR     0700   45     200/  4/  7 1021.3F
$$

LMZ867-665-643>646-220900-
LAKE MICHIGAN

STATION/POSITION TIME  TEMP    WIND        PRES    WAVE
                       AIR SEA DIR/SP/G            HT/PER
                 (UTC) (F)     (DEG/KT/KT) (MB)    (FT/S)
N MID LAKE BUOY  0650   48 57  340/ 16/ 19 1020.3R   3/ 5
NORTHPORT PIER   0700   49     350/ 14/ 17 1020.3F
KEWAUNEE LAKESHO 0700   42     300/  3/  4 1020.3F
SHEBOYGAN LAKESH 0700   45 50  310/  7/  9 1022.3F
PORT WASHINGTON  0700   45     300/  5/  7 1022.4F
ATWATER BUOY     0700   50     320/ 10/ 12 1022.9R
MILWAUKEE LAKESH 0700   48     330/  7/  9   N/A
S MID LAKE BUOY  0650   53 61  350/ 19/ 25 1021.1R   7/ 8
KENOSHA   LAKESH 0700   49     320/ 10/ 14 1021.7R
$$

TC  - TEMPERATURE IN CELSIUS
VSB - VISIBILITY IN STATUTE MILES
WCI - WIND CHILL INDEX
HX  - HEAT INDEX



USA.gov is the U.S. government's official web portal to all federal, state and local government web resources and services.